| time (UTC) | temp F | wind direction | speed MPH | gust MPH | rain 1hr in | rain 24hr in | rain mn in | humidity % | barometer mb |
| 20260905031602 | 66 | 214 | 0.0 | 0.0 | 0.00 | 0.00 | 0.00 | 92 | 1013.2 |
| 20260905030121 | 67 | 214 | 0.0 | 1.0 | 0.00 | 0.00 | 0.00 | 93 | 1013.1 |
| 20260905024559 | 67 | 214 | 0.0 | 2.0 | 0.00 | 0.00 | 0.00 | 93 | 1013.2 |
| 20260905023058 | 68 | 214 | 0.0 | 0.0 | 0.00 | 0.00 | 0.00 | 92 | 1013.3 |
| 20260905021558 | 68 | 214 | 0.0 | 0.0 | 0.00 | 0.00 | 0.00 | 92 | 1013.1 |
| 20260905020106 | 68 | 214 | 0.0 | 0.0 | 0.00 | 0.00 | 0.00 | 93 | 1013.2 |
| 20260905014556 | 68 | 214 | 0.0 | 0.0 | 0.00 | 0.06 | 0.00 | 93 | 1013.2 |
| 20260905013056 | 69 | 214 | 0.0 | 0.0 | 0.00 | 0.06 | 0.00 | 92 | 1013.2 |
| 20260905011555 | 69 | 213 | 0.0 | 1.0 | 0.00 | 0.06 | 0.00 | 92 | 1013.1 |
| 20260905004610 | 69 | 214 | 0.0 | 0.0 | 0.00 | 0.06 | 0.00 | 91 | 1013.2 |
| 20260905003054 | 69 | 214 | 0.0 | 0.0 | 0.00 | 0.06 | 0.00 | 90 | 1013.1 |
| 20260905001553 | 70 | 214 | 0.0 | 2.0 | 0.00 | 0.06 | 0.00 | 90 | 1013.0 |
| 20260905000053 | 70 | 214 | 0.0 | 1.0 | 0.00 | 0.06 | 0.00 | 89 | 1013.0 |
| 20260904234552 | 71 | 214 | 0.0 | 0.0 | 0.00 | 0.06 | 0.00 | 89 | 1013.0 |
| 20260904233057 | 71 | 214 | 0.0 | 1.0 | 0.00 | 0.06 | 0.00 | 88 | 1012.8 |
| 20260904231551 | 72 | 214 | 0.0 | 1.0 | 0.00 | 0.06 | 0.00 | 87 | 1012.8 |
| 20260904230051 | 72 | 214 | 0.0 | 1.0 | 0.00 | 0.06 | 0.00 | 87 | 1012.9 |
| 20260904224552 | 72 | 214 | 0.0 | 1.0 | 0.00 | 0.06 | 0.00 | 87 | 1012.6 |
| 20260904223151 | 72 | 214 | 0.0 | 2.0 | 0.00 | 0.06 | 0.00 | 86 | 1012.5 |
| 20260904221555 | 72 | 214 | 0.0 | 2.0 | 0.00 | 0.06 | 0.00 | 86 | 1012.3 |
| 20260904220049 | 72 | 214 | 0.0 | 1.0 | 0.00 | 0.06 | 0.00 | 85 | 1012.1 |
| 20260904214549 | 72 | 214 | 0.0 | 0.0 | 0.00 | 0.06 | 0.00 | 85 | 1012.0 |
| 20260904213047 | 72 | 214 | 0.0 | 1.0 | 0.00 | 0.06 | 0.00 | 85 | 1011.8 |
| 20260904211547 | 72 | 214 | 0.0 | 1.0 | 0.00 | 0.06 | 0.00 | 83 | 1011.9 |
| 20260904210051 | 72 | 214 | 0.0 | 2.0 | 0.00 | 0.06 | 0.00 | 81 | 1012.2 |
| 20260904204542 | 73 | 214 | 0.0 | 3.0 | 0.00 | 0.06 | 0.00 | 79 | 1012.6 |
| 20260904203043 | 74 | 220 | 0.0 | 2.0 | 0.00 | 0.06 | 0.00 | 79 | 1012.6 |
| 20260904201540 | 75 | 220 | 0.0 | 2.0 | 0.00 | 0.06 | 0.00 | 76 | 1012.7 |
| 20260904200039 | 74 | 220 | 0.0 | 2.0 | 0.00 | 0.06 | 0.00 | 76 | 1012.8 |
| 20260904194539 | 74 | 219 | 1.0 | 4.0 | 0.00 | 0.06 | 0.00 | 76 | 1012.9 |
| 20260904193038 | 74 | 236 | 0.0 | 5.0 | 0.00 | 0.06 | 0.00 | 76 | 1013.1 |
| 20260904191538 | 74 | 188 | 0.0 | 5.0 | 0.00 | 0.06 | 0.00 | 75 | 1013.4 |
| 20260904190039 | 74 | 206 | 0.0 | 7.0 | 0.00 | 0.06 | 0.00 | 75 | 1013.5 |
| 20260904184537 | 75 | 194 | 1.0 | 7.0 | 0.00 | 0.06 | 0.00 | 73 | 1013.9 |
| 20260904183035 | 75 | 219 | 3.0 | 8.0 | 0.00 | 0.06 | 0.00 | 71 | 1014.1 |
| 20260904181535 | 76 | 261 | 0.0 | 6.0 | 0.00 | 0.06 | 0.00 | 70 | 1014.0 |
| 20260904180033 | 78 | 170 | 2.0 | 6.0 | 0.00 | 0.06 | 0.00 | 67 | 1014.0 |
| 20260904174533 | 78 | 225 | 2.0 | 9.0 | 0.00 | 0.06 | 0.00 | 68 | 1014.0 |
| 20260904173033 | 77 | 194 | 2.0 | 8.0 | 0.00 | 0.06 | 0.00 | 72 | 1014.1 |
| 20260904171542 | 77 | 166 | 0.0 | 7.0 | 0.00 | 0.06 | 0.00 | 70 | 1014.3 |
| 20260904170032 | 76 | 186 | 3.0 | 8.0 | 0.00 | 0.06 | 0.00 | 68 | 1014.5 |
| 20260904164531 | 78 | 152 | 2.0 | 8.0 | 0.00 | 0.06 | 0.00 | 73 | 1014.7 |
| 20260904163031 | 78 | 181 | 1.0 | 8.0 | 0.00 | 0.06 | 0.00 | 70 | 1014.7 |
| 20260904161534 | 78 | 124 | 2.0 | 5.0 | 0.00 | 0.06 | 0.00 | 70 | 1014.9 |
| 20260904160024 | 77 | 284 | 1.0 | 4.0 | 0.00 | 0.06 | 0.00 | 68 | 1015.1 |
| 20260904154521 | 77 | 260 | 0.0 | 7.0 | 0.00 | 0.06 | 0.00 | 69 | 1014.7 |
| 20260904153022 | 77 | 206 | 1.0 | 4.0 | 0.00 | 0.06 | 0.00 | 67 | 1014.5 |
| 20260904151515 | 76 | 111 | 1.0 | 3.0 | 0.00 | 0.06 | 0.00 | 71 | 1014.5 |
| 20260904150018 | 75 | 293 | 1.0 | 3.0 | 0.00 | 0.06 | 0.00 | 75 | 1014.4 |
| 20260904144508 | 74 | 293 | 0.0 | 2.0 | 0.00 | 0.06 | 0.00 | 73 | 1014.6 |
| 20260904143005 | 73 | 293 | 1.0 | 5.0 | 0.00 | 0.06 | 0.00 | 77 | 1014.5 |
| 20260904141502 | 73 | 323 | 0.0 | 4.0 | 0.00 | 0.06 | 0.00 | 82 | 1014.3 |
| 20260904140057 | 71 | 346 | 0.0 | 4.0 | 0.00 | 0.06 | 0.00 | 85 | 1014.2 |
| 20260904134554 | 69 | 340 | 0.0 | 3.0 | 0.00 | 0.06 | 0.00 | 94 | 1014.1 |
| 20260904133051 | 68 | 340 | 0.0 | 3.0 | 0.00 | 0.06 | 0.00 | 97 | 1014.4 |
| 20260904131559 | 67 | 340 | 0.0 | 1.0 | 0.00 | 0.06 | 0.00 | 98 | 1014.5 |
| 20260904130045 | 67 | 340 | 0.0 | 2.0 | 0.00 | 0.06 | 0.00 | 98 | 1014.5 |
| 20260904124545 | 66 | 340 | 0.0 | 1.0 | 0.00 | 0.06 | 0.00 | 98 | 1014.7 |
| 20260904123044 | 66 | 340 | 0.0 | 1.0 | 0.00 | 0.06 | 0.00 | 98 | 1014.6 |
| 20260904121540 | 64 | 340 | 0.0 | 0.0 | 0.00 | 0.06 | 0.00 | 98 | 1014.4 |
| 20260904120045 | 63 | 340 | 0.0 | 0.0 | 0.00 | 0.06 | 0.00 | 97 | 1014.6 |
| 20260904114535 | 63 | 340 | 0.0 | 0.0 | 0.00 | 0.06 | 0.00 | 96 | 1014.4 |
| 20260904113033 | 62 | 340 | 0.0 | 0.0 | 0.00 | 0.06 | 0.00 | 96 | 1014.2 |
| 20260904111540 | 63 | 340 | 0.0 | 0.0 | 0.00 | 0.06 | 0.00 | 96 | 1014.0 |
| 20260904110025 | 63 | 340 | 0.0 | 0.0 | 0.00 | 0.06 | 0.00 | 96 | 1013.9 |
| 20260904104522 | 63 | 340 | 0.0 | 0.0 | 0.00 | 0.06 | 0.00 | 96 | 1013.8 |
| 20260904103025 | 63 | 340 | 0.0 | 0.0 | 0.00 | 0.06 | 0.00 | 96 | 1013.9 |
| 20260904101519 | 64 | 340 | 0.0 | 0.0 | 0.00 | 0.06 | 0.00 | 96 | 1013.7 |
| 20260904100016 | 64 | 340 | 0.0 | 0.0 | 0.00 | 0.06 | 0.00 | 96 | 1013.8 |
| 20260904094514 | 64 | 340 | 0.0 | 0.0 | 0.00 | 0.06 | 0.00 | 96 | 1013.7 |
| 20260904093013 | 65 | 340 | 0.0 | 0.0 | 0.00 | 0.06 | 0.00 | 96 | 1013.5 |
| 20260904091512 | 65 | 340 | 0.0 | 0.0 | 0.00 | 0.06 | 0.00 | 96 | 1013.5 |
| 20260904090009 | 65 | 340 | 0.0 | 0.0 | 0.00 | 0.06 | 0.00 | 96 | 1013.4 |
| 20260904084510 | 66 | 340 | 0.0 | 2.0 | 0.00 | 0.06 | 0.00 | 96 | 1013.6 |
| 20260904083005 | 66 | 346 | 1.0 | 4.0 | 0.00 | 0.06 | 0.00 | 97 | 1013.5 |
| 20260904081505 | 66 | 15 | 0.0 | 1.0 | 0.00 | 0.06 | 0.00 | 97 | 1013.4 |
| 20260904080001 | 66 | 15 | 0.0 | 2.0 | 0.00 | 0.06 | 0.00 | 96 | 1013.2 |
| 20260904074610 | 66 | 15 | 0.0 | 1.0 | 0.00 | 0.06 | 0.00 | 96 | 1013.2 |
| 20260904073102 | 67 | 15 | 0.0 | 0.0 | 0.00 | 0.06 | 0.00 | 96 | 1012.9 |
| 20260904071559 | 67 | 15 | 0.0 | 0.0 | 0.00 | 0.06 | 0.00 | 96 | 1012.9 |
| 20260904070117 | 67 | 15 | 0.0 | 0.0 | 0.00 | 0.06 | 0.00 | 96 | 1012.9 |
| 20260904064555 | 67 | 15 | 0.0 | 0.0 | 0.00 | 0.06 | 0.00 | 96 | 1013.0 |
| 20260904063102 | 67 | 15 | 0.0 | 1.0 | 0.00 | 0.06 | 0.00 | 97 | 1013.1 |
| 20260904061553 | 68 | 15 | 0.0 | 0.0 | 0.00 | 0.06 | 0.00 | 96 | 1012.9 |
| 20260904060053 | 68 | 15 | 0.0 | 0.0 | 0.00 | 0.06 | 0.00 | 96 | 1012.8 |
| 20260904054551 | 68 | 15 | 0.0 | 1.0 | 0.00 | 0.06 | 0.00 | 96 | 1013.0 |
| 20260904053050 | 68 | 15 | 0.0 | 0.0 | 0.00 | 0.06 | 0.00 | 96 | 1013.0 |
| 20260904051549 | 68 | 15 | 0.0 | 1.0 | 0.00 | 0.06 | 0.00 | 96 | 1013.2 |
| 20260904050050 | 68 | 15 | 0.0 | 0.0 | 0.00 | 0.06 | 0.00 | 96 | 1013.3 |
| 20260904044553 | 68 | 15 | 0.0 | 1.0 | 0.00 | 0.06 | 0.00 | 96 | 1013.3 |
| 20260904043053 | 68 | 15 | 0.0 | 0.0 | 0.00 | 0.06 | 0.00 | 95 | 1013.2 |
| 20260904041546 | 68 | 15 | 0.0 | 0.0 | 0.00 | 0.06 | 0.00 | 95 | 1013.1 |
| 20260904040053 | 68 | 15 | 0.0 | 0.0 | 0.00 | 0.06 | 0.00 | 94 | 1013.3 |
| 20260904034542 | 68 | 15 | 0.0 | 0.0 | 0.00 | 0.06 | 0.06 | 94 | 1013.1 |
| 20260904033040 | 69 | 15 | 0.0 | 0.0 | 0.00 | 0.06 | 0.06 | 94 | 1013.0 |